Regional Weather Roundup
Issued by NWS Midland/Odessa, TX

Skip options and go directly to product.
Home | Oldest Version | Previous Version | Current Version | All | Text Only | Save Text | Print | Product List | Glossary Off

Skip product version selection by date and time.   

252
ASUS44 KMAF 020010
RWRMAF
MIDLAND AREA WEATHER ROUNDUP
NATIONAL WEATHER SERVICE MIDLAND TX
700 PM CDT SAT AUG 01 2015

...IN SOUTHWEST TEXAS AND SOUTHEAST NEW MEXICO...

CITY           SKY/WX    TMP DP  RH WIND       PRES   REMARKS
ALPINE         PTSUNNY   83  61  47 CALM      30.15F
ANDREWS        LGT RAIN  84  66  53 SE9G16    30.02S
ARTESIA        PTSUNNY   93  55  27 SW7       30.00F
BIG SPRING     PTSUNNY   87  62  43 E17       30.03S
CARLSBAD       MOSUNNY   98  54  22 SE5       29.95F
DRYDEN           N/A     93  60  33 E12G28    29.95F
FORT STOCKTON  SUNNY     95  56  26 SE18G28   29.98F
GUAD PASS      PTSUNNY   78  57  48 SE18G31   30.18R
HOBBS          PTSUNNY   90  59  35 NW16G24   30.04R THUNDER
MARFA          PTSUNNY   82  57  42 NE7       30.13F
MIDLAND AIRPK  MOSUNNY   94  58  30 E15G21    30.01R
MIDLAND INTL   MOSUNNY   92  62  36 SE16      30.00R
ODESSA         PTSUNNY   93  60  33 SE18G29   30.01R
PECOS          MOSUNNY   95  56  26 SW14      29.93F
PRESIDIO       CLOUDY    91  58  32 E18G31    29.94R
SEMINOLE       PTSUNNY   87  60  39 SE17G23   30.03S
SNYDER         MOSUNNY   90  67  47 E14       30.01S
WINK           MOSUNNY   98  53  22 SE15G22   29.93F
$$
...OTHER STATIONS IN TEXAS...

CITY           SKY/WX    TMP DP  RH WIND       PRES   REMARKS
ABILENE        MOSUNNY   91  65  41 E15       29.98F
AMARILLO       SUNNY     82  67  60 S15       30.05F
AUSTIN         MOSUNNY   94  56  27 E12       29.90F
BROWNSVILLE    PTSUNNY   85  74  69 SE9       29.88F
CORPUS CHRISTI PTSUNNY   92  66  42 SE13      29.87S
DALLAS FTW     PTSUNNY   96  51  21 E7        29.92F
DEL RIO        CLOUDY    88  72  58 CALM      29.89F
EL PASO        MOSUNNY   94  47  20 S6        29.99F
HOUSTON INT    MOSUNNY   94  61  33 E10       29.88F
LUBBOCK        MOSUNNY   86  66  51 SE16G23   30.03F
SAN ANGELO     SUNNY     94  60  32 E15       29.96S
SAN ANTONIO    MOSUNNY   96  56  26 E12       29.91F
WACO           SUNNY     95  55  26 E10       29.92F
WICHITA FALLS  NOT AVBL
$$
...OTHER LOCATIONS IN NEW MEXICO...

CITY           SKY/WX    TMP DP  RH WIND       PRES   REMARKS
ALAMAGORDO     MOSUNNY   91  50  24 CALM      30.03F
ALBUQUERQUE    PTSUNNY   87  47  24 W6        30.11F
CANNON AFB     SUNNY     87  61  41 SW8       30.06F
CLOVIS         SUNNY     88  61  40 S16       30.07F
HOLLOMAN AFB   SUNNY     93  48  21 W9        30.00F
ROSWELL        PTSUNNY   89  54  30 W12       30.00F
RUIDOSO          N/A    N/A N/A N/A MISG        N/A
SANTA FE       CLOUDY    76  53  44 N10       30.22F
TRUTH OR CONSE PTSUNNY   89  50  26 W16       30.08F
TUCUMCARI      PTSUNNY   83  66  56 SW5       30.03S
$$

USA.gov is the U.S. government's official web portal to all federal, state and local government web resources and services.